When you browse on this site, cookies collect data to enhance your experience and personalize the content and advertising you see.
Visit our Privacy Policy to learn more. By continuing to use the site, you agree to this use of cookies and data.
  • In Hungary
  • List of Countries
  • For 7 days
  • Water Temperature
  • Satellite Maps
  • Weather Map
  • News
  • Weather Widgets
  • user-avatar
    Login

    Hourly Weather Kopyly

    Today, 24 January, Thursday

    Time Temperature Precipitation Wind Pressure Humidity
    00:00 -16°C° 0 mm 2 mps 743 mmHg 97%
    01:00 -16°C° 0 mm 2 mps 743 mmHg 98%
    02:00 -15°C° 0 mm 2 mps 743 mmHg 97%
    03:00 -15°C° 0 mm 2 mps 743 mmHg 97%
    04:00 -16°C° 0 mm 2 mps 743 mmHg 98%
    05:00 -16°C° 0 mm 2 mps 742 mmHg 98%
    06:00 -16°C° 0 mm 2 mps 742 mmHg 98%
    07:00 -16°C° 0 mm 2 mps 742 mmHg 98%
    08:00 -17°C° 0 mm 2 mps 742 mmHg 98%
    09:00 -16°C° 0 mm 2 mps 742 mmHg 97%
    10:00 -15°C° 0 mm 2 mps 742 mmHg 96%
    11:00 -15°C° 0 mm 3 mps 742 mmHg 95%
    12:00 -14°C° 0 mm 3 mps 742 mmHg 94%
    13:00 -13°C° 0 mm 3 mps 742 mmHg 93%
    14:00 -12°C° 0 mm 3 mps 742 mmHg 93%
    15:00 -12°C° 0 mm 3 mps 743 mmHg 93%
    16:00 -10°C° 0 mm 2 mps 743 mmHg 93%
    17:00 -10°C° 0 mm 2 mps 743 mmHg 93%
    18:00 -13°C° 0 mm 2 mps 744 mmHg 94%
    19:00 -14°C° 0 mm 2 mps 744 mmHg 95%
    20:00 -16°C° 0 mm 2 mps 745 mmHg 95%
    21:00 -17°C° 0 mm 2 mps 745 mmHg 96%
    22:00 -18°C° 0 mm 2 mps 746 mmHg 97%
    23:00 -17°C° 0 mm 1 mps 747 mmHg 98%

    Tomorrow, 25 January, Friday

    Time Temperature Precipitation Wind Pressure Humidity
    00:00 -18°C° 0 mm 1 mps 747 mmHg 97%
    01:00 -18°C° 0 mm 1 mps 748 mmHg 97%
    02:00 -19°C° 0 mm 1 mps 748 mmHg 96%
    03:00 -19°C° 0 mm 1 mps 748 mmHg 96%
    04:00 -19°C° 0 mm 1 mps 748 mmHg 95%
    05:00 -20°C° 0 mm 0 mps 749 mmHg 95%
    06:00 -20°C° 0 mm 0 mps 749 mmHg 94%
    07:00 -20°C° 0 mm 0 mps 749 mmHg 94%
    08:00 -20°C° 0 mm 0 mps 750 mmHg 93%
    09:00 -18°C° 0 mm 0 mps 750 mmHg 92%
    10:00 -16°C° 0 mm 0 mps 750 mmHg 91%
    11:00 -14°C° 0 mm 0 mps 751 mmHg 89%
    12:00 -13°C° 0 mm 0 mps 751 mmHg 90%
    13:00 -13°C° 0 mm 0 mps 751 mmHg 90%
    14:00 -12°C° 0 mm 1 mps 750 mmHg 91%
    15:00 -13°C° 0 mm 1 mps 750 mmHg 91%
    16:00 -14°C° 0 mm 1 mps 750 mmHg 92%
    17:00 -16°C° 0 mm 1 mps 750 mmHg 92%
    18:00 -16°C° 0 mm 1 mps 750 mmHg 92%
    19:00 -18°C° 0 mm 2 mps 749 mmHg 92%
    20:00 -18°C° 0 mm 2 mps 749 mmHg 92%
    21:00 -17°C° 0 mm 2 mps 749 mmHg 91%
    22:00 -17°C° 0 mm 2 mps 748 mmHg 91%
    23:00 -16°C° 0 mm 2 mps 748 mmHg 90%

    Day after tomorrow, 26 January, Saturday

    Time Temperature Precipitation Wind Pressure Humidity
    00:00 -17°C° 0 mm 3 mps 747 mmHg 89%
    01:00 -17°C° 0 mm 3 mps 747 mmHg 89%
    02:00 -17°C° 0 mm 3 mps 746 mmHg 88%
    03:00 -18°C° 0 mm 4 mps 745 mmHg 87%
    04:00 -18°C° 0 mm 4 mps 744 mmHg 85%
    05:00 -17°C° 0 mm 4 mps 743 mmHg 84%
    06:00 -18°C° 0 mm 5 mps 742 mmHg 84%
    07:00 -18°C° 0 mm 5 mps 741 mmHg 84%
    08:00 -18°C° 0 mm 5 mps 740 mmHg 84%
    09:00 -18°C° 0.2 mm 5 mps 740 mmHg 86%
    10:00 -18°C° 0.2 mm 5 mps 739 mmHg 89%
    11:00 -17°C° 0.2 mm 4 mps 738 mmHg 92%
    12:00 -16°C° 0.2 mm 4 mps 738 mmHg 92%
    13:00 -16°C° 0.2 mm 4 mps 737 mmHg 92%
    14:00 -16°C° 0.2 mm 4 mps 736 mmHg 92%
    15:00 -15°C° 0.1 mm 3 mps 736 mmHg 93%
    16:00 -15°C° 0.1 mm 3 mps 735 mmHg 93%
    17:00 -15°C° 0.1 mm 3 mps 735 mmHg 93%
    18:00 -15°C° 0.1 mm 3 mps 734 mmHg 93%
    19:00 -15°C° 0.1 mm 3 mps 734 mmHg 94%
    20:00 -14°C° 0.1 mm 3 mps 733 mmHg 94%
    21:00 -13°C° 0.1 mm 2 mps 733 mmHg 94%
    22:00 -13°C° 0.1 mm 2 mps 733 mmHg 95%
    23:00 -13°C° 0.1 mm 2 mps 733 mmHg 95%

    27 January, Sunday

    Time Temperature Precipitation Wind Pressure Humidity
    00:00 -12°C° 0.2 mm 2 mps 732 mmHg 95%
    01:00 -12°C° 0.2 mm 2 mps 732 mmHg 96%
    02:00 -12°C° 0.2 mm 2 mps 732 mmHg 96%
    03:00 -10°C° 0.3 mm 1 mps 731 mmHg 97%
    04:00 -9°C° 0.3 mm 1 mps 731 mmHg 97%
    05:00 -9°C° 0.3 mm 1 mps 730 mmHg 97%
    06:00 -9°C° 0.3 mm 1 mps 730 mmHg 97%
    07:00 -9°C° 0.3 mm 1 mps 730 mmHg 97%
    08:00 -9°C° 0.3 mm 0 mps 730 mmHg 97%
    09:00 -9°C° 0.1 mm 1 mps 730 mmHg 97%
    10:00 -8°C° 0.1 mm 1 mps 730 mmHg 96%
    11:00 -8°C° 0.1 mm 1 mps 729 mmHg 96%
    12:00 -8°C° 0.1 mm 1 mps 729 mmHg 95%
    13:00 -9°C° 0.1 mm 2 mps 729 mmHg 94%
    14:00 -9°C° 0.1 mm 2 mps 729 mmHg 94%
    15:00 -10°C° 0.1 mm 2 mps 729 mmHg 94%
    16:00 -10°C° 0.1 mm 2 mps 730 mmHg 95%
    17:00 -12°C° 0.1 mm 2 mps 730 mmHg 95%
    18:00 -13°C° 0 mm 2 mps 730 mmHg 95%
    19:00 -14°C° 0 mm 2 mps 730 mmHg 96%
    20:00 -15°C° 0 mm 2 mps 731 mmHg 96%
    21:00 -17°C° 0 mm 2 mps 731 mmHg 97%
    22:00 -18°C° 0 mm 2 mps 732 mmHg 97%
    23:00 -19°C° 0 mm 2 mps 732 mmHg 98%

    28 January, Monday

    Time Temperature Precipitation Wind Pressure Humidity
    00:00 -20°C° 0 mm 2 mps 733 mmHg 98%
    01:00 -20°C° 0 mm 2 mps 734 mmHg 99%
    02:00 -21°C° 0 mm 2 mps 734 mmHg 99%
    03:00 -21°C° 0 mm 2 mps 735 mmHg 99%
    04:00 -23°C° 0 mm 2 mps 735 mmHg 99%
    05:00 -23°C° 0 mm 2 mps 735 mmHg 99%
    06:00 -24°C° 0 mm 2 mps 736 mmHg 99%
    07:00 -24°C° 0 mm 2 mps 737 mmHg 99%
    08:00 -24°C° 0 mm 2 mps 737 mmHg 99%
    09:00 -19°C° 0 mm 1 mps 738 mmHg 97%
    10:00 -18°C° 0 mm 1 mps 738 mmHg 96%
    11:00 -16°C° 0 mm 1 mps 739 mmHg 95%
    12:00 -15°C° 0 mm 1 mps 739 mmHg 94%
    13:00 -14°C° 0 mm 1 mps 739 mmHg 93%
    14:00 -13°C° 0 mm 1 mps 739 mmHg 92%
    15:00 -14°C° 0 mm 1 mps 739 mmHg 92%
    16:00 -15°C° 0 mm 1 mps 739 mmHg 93%
    17:00 -19°C° 0 mm 2 mps 739 mmHg 93%
    18:00 -18°C° 0 mm 2 mps 739 mmHg 92%
    19:00 -19°C° 0 mm 3 mps 739 mmHg 90%
    20:00 -19°C° 0 mm 3 mps 739 mmHg 88%
    21:00 -18°C° 0.1 mm 3 mps 739 mmHg 88%
    22:00 -17°C° 0.1 mm 4 mps 739 mmHg 87%
    23:00 -16°C° 0.1 mm 4 mps 738 mmHg 87%

    29 January, Tuesday

    Time Temperature Precipitation Wind Pressure Humidity
    00:00 -16°C° 0.7 mm 4 mps 738 mmHg 89%
    01:00 -15°C° 0.7 mm 4 mps 737 mmHg 91%
    02:00 -15°C° 0.7 mm 5 mps 737 mmHg 94%
    03:00 -14°C° 0.1 mm 5 mps 736 mmHg 93%
    04:00 -14°C° 0.1 mm 5 mps 736 mmHg 93%
    05:00 -14°C° 0.1 mm 5 mps 735 mmHg 92%
    06:00 -13°C° 0.1 mm 5 mps 735 mmHg 93%
    07:00 -12°C° 0.1 mm 4 mps 734 mmHg 93%
    08:00 -11°C° 0.1 mm 4 mps 734 mmHg 93%
    09:00 -10°C° 0.1 mm 4 mps 734 mmHg 93%
    10:00 -9°C° 0.1 mm 4 mps 733 mmHg 93%
    11:00 -8°C° 0.1 mm 5 mps 733 mmHg 93%
    12:00 -7°C° 0.2 mm 5 mps 732 mmHg 93%
    13:00 -6°C° 0.2 mm 5 mps 731 mmHg 93%
    14:00 -5°C° 0.2 mm 5 mps 731 mmHg 92%
    15:00 -4°C° 0.6 mm 5 mps 730 mmHg 92%
    16:00 -4°C° 0.6 mm 5 mps 730 mmHg 91%
    17:00 -2°C° 0.6 mm 5 mps 729 mmHg 91%
    18:00 -2°C° 0.2 mm 5 mps 729 mmHg 91%
    19:00 -1°C° 0.2 mm 5 mps 729 mmHg 92%
    20:00 -1°C° 0.2 mm 5 mps 729 mmHg 92%
    21:00 -1°C° 0.1 mm 5 mps 729 mmHg 91%
    22:00 -1°C° 0.1 mm 5 mps 730 mmHg 90%
    23:00 -1°C° 0.1 mm 5 mps 730 mmHg 89%
    Show more